Starlink 30576

operational
NORAD ID: 58065 Int'l Des: 2023-158 Owner: SPXS Country: US Constellation: starlink
LEOCIRCULAR

Starlink 30576について

説明を読み込み中...

リアルタイム位置

3D地球を読み込み中...

次回通過

高度履歴

Altitude vs Time

uPlot chart will show altitude changes over time

軌道要素

1 58065U 23158Q 25352.41824388 .00001376 00000-0 11689-3 0 9993
2 58065 43.0026 112.1414 0001597 269.6317 90.4342 15.02534342121309
Epoch: Dec 18, 2025 • Age: 15 hours

現在のステータス

高度 558.8 km
速度 7.58 km/s
衛星直下点 1.09°N, 178.16°W
打ち上げ日 Oct 13, 2023
運用期間 2.1 years
タイプ internet

技術仕様

分類 Payload
質量 730.00 kg
乾燥質量 700.00 kg
総質量 730.00 kg
長さ 0.30 m
直径 4.10 m
スパン 29.00 m
形状 Box + pan
製造者 SPXS
バスタイプ Starlink V2M
フェーズステータス In Orbit
所有者/国 SPXS/US

大規模コンステレーション

Loading constellations...